Oskaloosa, IA

5:47 AM CDT on September 25, 2017 (GMT -0500)
Oskaloosa Municipal

Weather History for KOOA - February, 2013

Change the Weather History Date:

Wednesday, February 27, 2013

  Actual Average (KOTM) Record (KOTM)
Temperature  
Mean Temperature 28 °F -  
Max Temperature 30 °F 41 °F 72 °F (1976)
Min Temperature 27 °F 25 °F -23 °F (1934)
Degree Days  
Heating Degree Days 36    
Moisture  
Dew Point 27 °F    
Average Humidity 90    
Maximum Humidity 93    
Minimum Humidity 86    
Precipitation  
Precipitation 0.00 in - - ()
Sea Level Pressure  
Sea Level Pressure 29.80 in    
Wind  
Wind Speed 14 mph (NW)    
Max Wind Speed 21 mph    
Max Gust Speed 24 mph    
Visibility 2 miles    
Events Snow    
Averages and records for this station are not official NWS values.
T = Trace of Precipitation, MM = Missing Value Source: NWS Daily Summary

Daily Weather History Graph

Daily Weather History Graph

Search for Another Location

Airport or City:

Trip Planner

Search our weather history database for the weather conditions in past years. The results will help you decide how hot, cold, wet, or windy it might be!

Date:

Astronomy

Feb. 27, 2013 Rise Set
Actual Time 6:47 AM CST 5:58 PM CST
Civil Twilight 6:19 AM CST 6:26 PM CST
Nautical Twilight 5:47 AM CST 6:58 PM CST
Astronomical Twilight 5:15 AM CST 7:30 PM CST
Moon 8:22 PM CST (2/27) 7:20 AM CST (2/27)
Length of Visible Light 12h 07m
Length of Day
11h 11m
Waning Gibbous, 96% of the Moon is Illuminated
Feb 27
Waning Gibbous
Mar 4
Last Quarter
Mar 11
New
Mar 19
First Quarter
Mar 27
Full

Hourly Weather History & Observations

Time (CST) Temp. Windchill Dew Point Humidity Pressure Visibility Wind Dir Wind Speed Gust Speed Precip Events Conditions
12:15 AM 30.6 °F 21.2 °F 28.8 °F 93% 29.72 in 1.5 mi North 11.5 mph - N/A Snow Light Snow
12:35 AM 30.6 °F 20.7 °F 28.8 °F 93% 29.72 in 1.5 mi North 12.7 mph - N/A Snow Light Snow
12:55 AM 30.6 °F 21.8 °F 28.8 °F 93% 29.73 in 1.8 mi North 10.4 mph - N/A Snow Light Snow
1:15 AM 30.4 °F 20.5 °F 28.6 °F 93% 29.73 in 1.2 mi NNW 12.7 mph - N/A Snow Light Snow
1:35 AM 30.2 °F 19.8 °F 28.4 °F 93% 29.73 in 1.8 mi North 13.8 mph - N/A Snow Light Snow
1:55 AM 30.2 °F 21.3 °F 28.4 °F 93% 29.73 in 1.8 mi NNW 10.4 mph - N/A Snow Light Snow
2:15 AM 30.0 °F 19.5 °F 28.2 °F 93% 29.72 in 2.0 mi North 13.8 mph - N/A Snow Light Snow
2:35 AM 29.7 °F 18.6 °F 27.5 °F 92% 29.72 in 4.0 mi North 15.0 mph - N/A Snow Light Snow
2:55 AM 29.7 °F 20.7 °F 27.5 °F 92% 29.73 in 3.0 mi North 10.4 mph - N/A Snow Light Snow
3:35 AM 29.3 °F 19.1 °F 27.5 °F 93% 29.73 in 2.5 mi NNW 12.7 mph - N/A Snow Light Snow
3:55 AM 29.3 °F 19.6 °F 27.5 °F 93% 29.73 in 4.0 mi NNW 11.5 mph - N/A Snow Light Snow
4:35 AM 29.3 °F 19.1 °F 27.1 °F 92% 29.73 in 4.0 mi NNW 12.7 mph - N/A Snow Light Snow
4:55 AM 29.3 °F 18.6 °F 27.1 °F 92% 29.73 in 3.0 mi NNW 13.8 mph - N/A Snow Light Snow
5:15 AM 29.3 °F 19.1 °F 27.0 °F 91% 29.73 in 3.0 mi NNW 12.7 mph - N/A Snow Light Snow
5:35 AM 29.1 °F 18.9 °F 27.0 °F 92% 29.73 in 2.5 mi NNW 12.7 mph - N/A Snow Light Snow
5:55 AM 29.3 °F 19.1 °F 27.1 °F 92% 29.74 in 1.5 mi NNW 12.7 mph - N/A Snow Light Snow
6:15 AM 29.1 °F 18.4 °F 27.1 °F 92% 29.73 in 1.5 mi NNW 13.8 mph - N/A Snow Light Snow
6:35 AM 29.1 °F 18.9 °F 27.1 °F 92% 29.74 in 1.8 mi NNW 12.7 mph - N/A Snow Light Snow
6:55 AM 29.1 °F 19.4 °F 27.1 °F 92% 29.74 in 3.0 mi NNW 11.5 mph - N/A Snow Light Snow
7:15 AM 28.0 °F 17.5 °F 26.1 °F 92% 29.74 in 1.8 mi NW 12.7 mph - N/A Snow Light Snow
7:35 AM 28.0 °F 18.6 °F 26.1 °F 92% 29.75 in 1.5 mi NW 10.4 mph - N/A Snow Light Snow
7:55 AM 28.2 °F 18.9 °F 26.2 °F 92% 29.76 in 1.0 mi NW 10.4 mph - N/A Snow Light Snow
8:15 AM 28.4 °F 18.5 °F 26.4 °F 92% 29.77 in 1.2 mi NW 11.5 mph - N/A Snow Light Snow
8:35 AM 28.8 °F 19.0 °F 26.6 °F 92% 29.77 in 1.0 mi NW 11.5 mph - N/A Snow Light Snow
9:15 AM 29.3 °F 19.1 °F 26.6 °F 90% 29.77 in 1.2 mi NW 12.7 mph - N/A Snow Light Snow
9:35 AM 29.7 °F 19.1 °F 26.6 °F 88% 29.77 in 1.2 mi NW 13.8 mph - N/A Snow Light Snow
9:55 AM 29.1 °F 18.9 °F 26.2 °F 89% 29.78 in 1.0 mi NW 12.7 mph - N/A Snow Light Snow
10:15 AM 28.9 °F 19.8 °F 26.1 °F 89% 29.78 in 0.5 mi NW 10.4 mph - N/A Snow Light Snow
10:35 AM 29.3 °F 19.6 °F 26.4 °F 89% 29.79 in 0.5 mi NW 11.5 mph - N/A Snow Light Snow
10:55 AM 30.0 °F 20.5 °F 26.8 °F 88% 29.79 in 1.0 mi NW 11.5 mph - N/A Snow Light Snow
11:15 AM 30.2 °F 18.1 °F 26.4 °F 86% 29.79 in 1.2 mi NNW 18.4 mph - N/A Snow Light Snow
11:35 AM 30.2 °F 18.5 °F 26.6 °F 86% 29.79 in 0.8 mi NNW 17.3 mph - N/A Snow Light Snow
11:55 AM 30.2 °F 18.1 °F 26.6 °F 86% 29.79 in 1.0 mi NNW 18.4 mph - N/A Snow Light Snow
12:15 PM 30.2 °F 18.1 °F 26.6 °F 86% 29.79 in 0.8 mi NNW 18.4 mph - N/A Snow Light Snow
12:35 PM 30.4 °F 18.7 °F 26.6 °F 86% 29.79 in 0.8 mi NNW 17.3 mph - N/A Snow Light Snow
12:55 PM 30.2 °F 19.3 °F 26.6 °F 86% 29.79 in 1.0 mi NW 15.0 mph - N/A Snow Light Snow
1:15 PM 30.0 °F 18.7 °F 26.6 °F 87% 29.79 in 1.0 mi NW 16.1 mph - N/A Snow Light Snow
1:35 PM 30.2 °F 18.9 °F 26.6 °F 86% 29.79 in 1.0 mi NW 16.1 mph - N/A Snow Light Snow
1:55 PM 30.2 °F 18.9 °F 26.8 °F 87% 29.79 in 1.0 mi NW 16.1 mph - N/A Snow Light Snow
2:15 PM 30.2 °F 19.3 °F 27.0 °F 88% 29.80 in 0.8 mi NW 15.0 mph - N/A Snow Light Snow
2:35 PM 30.2 °F 18.5 °F 26.8 °F 87% 29.81 in 2.0 mi NW 17.3 mph 21.9 mph N/A Snow Light Snow
2:55 PM 29.8 °F 18.9 °F 26.6 °F 88% 29.81 in 5.0 mi NW 15.0 mph - N/A Snow Light Snow
3:15 PM 29.8 °F 17.0 °F 26.2 °F 86% 29.81 in 1.2 mi NW 20.7 mph - N/A Snow Light Snow
3:35 PM 29.3 °F 17.0 °F 26.2 °F 88% 29.82 in 1.0 mi NW 18.4 mph 24.2 mph N/A Snow Light Snow
3:55 PM 29.1 °F 17.5 °F 26.1 °F 88% 29.83 in 1.2 mi NW 16.1 mph - N/A Snow Light Snow
4:15 PM 29.1 °F 16.7 °F 26.2 °F 89% 29.83 in 1.0 mi NW 18.4 mph - N/A Snow Light Snow
4:35 PM 28.8 °F 17.5 °F 26.1 °F 90% 29.84 in 1.2 mi NW 15.0 mph - N/A Snow Light Snow
4:55 PM 28.6 °F 16.8 °F 25.9 °F 90% 29.84 in 1.5 mi NW 16.1 mph - N/A Snow Light Snow
5:15 PM 28.4 °F 15.8 °F 25.7 °F 90% 29.85 in 1.8 mi NW 18.4 mph - N/A Snow Light Snow
5:35 PM 28.0 °F 15.3 °F 25.5 °F 90% 29.85 in 1.5 mi NW 18.4 mph - N/A Snow Light Snow
5:55 PM 28.0 °F 15.3 °F 25.5 °F 90% 29.86 in 3.0 mi NW 18.4 mph - N/A Snow Light Snow
6:15 PM 28.0 °F 16.1 °F 25.5 °F 90% 29.87 in 2.5 mi NW 16.1 mph - N/A Snow Light Snow
6:35 PM 28.0 °F 16.1 °F 25.7 °F 91% 29.87 in 3.0 mi NW 16.1 mph - N/A Snow Light Snow
6:55 PM 28.2 °F 17.2 °F 25.7 °F 90% 29.87 in 3.0 mi NW 13.8 mph - N/A Snow Light Snow
7:15 PM 28.2 °F 16.8 °F 25.7 °F 90% 29.88 in 2.5 mi NW 15.0 mph - N/A Snow Light Snow
7:35 PM 28.2 °F 16.3 °F 26.1 °F 92% 29.88 in 2.5 mi NW 16.1 mph - N/A Snow Light Snow
8:15 PM 28.4 °F 17.0 °F 25.7 °F 90% 29.88 in 7.0 mi NW 15.0 mph - N/A Snow Light Snow
8:35 PM 28.4 °F 15.8 °F 25.7 °F 90% 29.89 in 7.0 mi NW 18.4 mph 21.9 mph N/A   Overcast
8:55 PM 28.4 °F 16.6 °F 25.7 °F 90% 29.89 in 7.0 mi NW 16.1 mph - N/A Snow Light Snow
9:15 PM 28.4 °F 17.0 °F 25.5 °F 89% 29.89 in 7.0 mi NW 15.0 mph - N/A Snow Light Snow
9:35 PM 28.2 °F 15.9 °F 25.5 °F 90% 29.90 in 5.0 mi NW 17.3 mph - N/A Snow Light Snow
9:55 PM 28.2 °F 16.3 °F 25.3 °F 89% 29.90 in 5.0 mi NW 16.1 mph - N/A Snow Light Snow
10:15 PM 28.0 °F 14.9 °F 25.3 °F 90% 29.90 in 2.5 mi NW 19.6 mph - N/A Snow Light Snow
10:35 PM 27.9 °F 15.5 °F 25.2 °F 90% 29.90 in 3.0 mi NW 17.3 mph - N/A Snow Light Snow
10:55 PM 28.0 °F 16.1 °F 25.2 °F 89% 29.91 in 4.0 mi NW 16.1 mph - N/A Snow Light Snow
11:15 PM 28.0 °F 15.3 °F 24.8 °F 88% 29.91 in 5.0 mi NW 18.4 mph - N/A Snow Light Snow
11:35 PM 28.0 °F 15.3 °F 24.8 °F 88% 29.91 in 7.0 mi NW 18.4 mph 23.0 mph N/A   Overcast